Dewpoint
57 55 55 52 52 51 51 50 50 48 47 46 45 44 42 44 44 41 43 52 53 55 56 57 57 57 58 58 58 58 58 59 59 59 60 61 62 64 64 64 63 63 64
57 54 51 50 50 49 49 48 47 44 43 43 42 43 42 41 41 44 40 44 50 50 50 51 51 52 53 54 56 57 57 57 58 59 61 61 62 63 63 63 63 63 63
53 51 50 50 49 49 48 47 45 44 41 40 40 39 39 41 39 43 44 45 44 45 45 46 47 47 48 49 50 52 55 57 57 57 60 61 61 62 62 63 63 63 62
51 51 49 49 48 46 44 45 42 40 39 39 39 37 39 37 40 43 45 43 42 38 41 44 44 44 45 45 46 47 50 52 56 57 58 59 61 61 61 62 62 62 62
50 49 47 47 46 43 43 41 41 41 39 38 36 35 38 33 38 40 43 41 42 40 38 40 41 41 43 43 44 46 48 49 52 55 56 58 60 60 60 60 62 62 61
47 45 44 45 43 42 42 42 42 41 40 40 34 34 36 34 41 41 40 38 39 40 39 39 37 35 40 41 43 45 47 49 50 51 53 55 56 58 59 60 60 61 60
44 44 42 43 43 42 43 43 42 41 36 40 32 32 31 39 42 38 39 36 38 37 38 38 36 35 34 38 40 45 47 48 48 50 51 51 53 54 56 58 59 60 59
43 42 43 43 43 41 43 42 42 37 37 40 34 30 26 27 37 36 36 37 37 37 36 37 38 37 36 35 37 43 46 45 47 47 48 50 51 52 54 55 58 59 59
41 42 43 43 42 42 41 41 40 38 32 35 37 33 28 24 30 30 33 33 37 35 36 36 36 36 37 37 37 39 41 43 45 46 46 47 49 50 52 54 55 57 58
42 41 42 43 43 41 40 39 36 36 33 28 30 33 34 33 27 25 27 30 32 32 35 34 34 36 38 37 38 38 40 41 43 44 44 45 46 48 50 52 53 55 56
42 42 42 42 41 39 39 38 37 35 34 30 28 28 29 29 30 30 25 24 26 27 31 28 33 32 36 38 36 34 38 40 43 43 41 42 45 46 48 50 52 54 55
42 43 42 41 40 38 38 37 37 35 33 32 30 29 28 28 26 28 27 25 23 24 24 28 31 31 32 35 33 36 37 38 44 42 41 40 42 44 47 48 50 53 53
42 42 42 40 36 37 37 37 36 35 33 31 33 30 33 32 31 30 28 24 27 23 24 26 27 28 24 29 32 34 34 36 37 41 40 39 40 42 44 47 48 49 52
41 42 42 38 37 37 37 37 37 36 36 35 34 32 30 31 34 33 29 29 26 23 23 24 23 25 26 27 31 35 32 36 35 37 40 39 39 41 42 45 46 46 49
38 40 41 38 37 37 36 36 35 36 36 34 33 34 32 31 31 29 29 28 27 24 21 20 21 23 23 25 28 30 32 34 35 35 40 39 38 37 40 41 44 44 45
37 39 40 38 37 37 36 35 34 34 33 32 31 32 29 28 28 29 28 28 26 24 21 18 16 18 20 17 24 27 27 33 33 35 38 39 38 37 38 40 41 44 43
35 37 37 37 36 35 35 36 33 30 29 30 30 28 27 27 25 24 24 22 20 19 17 17 17 18 20 22 22 24 24 28 30 33 34 35 38 37 38 39 39 42 43
36 36 36 36 35 35 37 33 29 28 28 28 26 26 26 23 24 24 22 21 20 19 18 15 16 17 21 22 23 25 23 24 24 29 29 30 34 37 38 38 39 39 41
37 37 35 35 37 37 30 29 28 27 25 26 26 26 25 25 23 21 21 19 19 18 19 17 17 18 18 19 25 24 24 26 23 26 28 29 32 36 38 38 38 39 40
37 37 37 38 35 30 28 26 25 26 27 27 27 26 24 22 20 19 19 20 18 21 20 19 18 17 18 19 21 23 23 23 23 20 23 25 29 34 37 37 38 38 40
37 37 35 33 30 28 24 28 28 27 26 24 22 19 18 20 22 21 19 19 19 19 19 20 17 15 15 16 16 19 22 24 28 24 22 22 24 29 34 35 37 37 39
35 36 32 28 27 25 30 29 28 23 20 17 16 16 16 18 18 21 21 22 22 23 24 20 18 21 20 19 19 18 24 22 20 25 23 22 24 24 28 30 31 34 38
35 34 29 26 26 25 24 25 24 22 19 17 16 15 15 14 18 17 19 22 24 23 23 24 23 19 17 17 19 23 23 24 22 26 23 21 26 25 26 24 29 31 36
33 32 27 26 24 19 22 22 22 19 18 17 16 16 16 16 17 19 24 21 19 17 19 21 24 23 21 21 21 24 25 23 23 23 23 23 25 27 28 28 28 30 33
30 28 26 24 20 19 20 21 21 21 20 19 18 17 17 16 20 24 21 21 17 16 19 21 24 25 26 26 26 24 24 23 23 17 19 22 24 26 28 29 31 28 32
27 26 23 22 21 21 19 20 21 23 23 21 19 16 17 18 21 20 20 21 19 18 17 19 20 22 24 24 26 24 21 24 22 25 21 23 21 22 24 30 29 30 31
Lifted_Index
1 2 3 3 3 4 4 5 5 6 6 6 6 7 7 8 8 8 8 7 7 6 5 5 5 4 4 4 3 3 3 3 3 2 2 1 0 -0 -1 -1 -1 -1 -1
1 2 2 3 3 3 4 5 5 6 6 6 7 7 8 8 9 9 8 8 8 8 8 7 7 6 6 5 5 4 4 3 3 3 2 1 1 0 -0 -0 -1 -1 -1
1 1 2 2 2 3 4 5 5 6 7 7 8 8 8 9 9 9 9 9 9 10 10 10 9 9 9 8 8 7 6 4 4 3 2 2 1 1 1 0 -0 -0 -0
1 1 2 2 3 4 5 5 6 7 7 8 8 8 8 9 9 9 10 10 11 11 11 11 11 11 11 10 10 9 8 7 5 4 3 2 2 2 2 1 1 1 0
2 2 3 3 4 5 6 6 7 7 8 8 9 9 9 9 9 9 10 11 11 12 12 13 13 13 13 12 12 11 10 9 7 6 5 4 3 2 2 2 2 1 1
3 3 4 4 5 6 6 7 7 8 8 9 10 10 11 10 9 9 10 11 11 12 13 13 14 14 15 14 14 13 12 10 9 8 7 6 4 4 3 3 2 2 2
4 4 5 6 6 7 7 8 8 9 9 10 11 12 11 10 10 9 10 10 11 11 12 13 14 14 15 16 15 14 13 12 11 10 9 8 6 5 4 3 3 2 3
5 6 6 7 8 8 8 9 10 10 11 11 12 12 12 11 10 10 10 10 11 11 11 12 12 13 14 15 15 15 14 13 12 11 10 9 8 7 5 4 3 3 3
6 7 8 8 9 10 10 11 11 12 12 12 13 12 12 12 12 11 11 11 11 10 10 11 11 11 12 13 13 14 14 14 13 12 11 10 9 8 7 5 4 3 3
8 8 9 10 11 11 11 11 12 12 13 14 14 13 13 12 12 12 12 11 11 10 10 10 10 10 10 11 12 13 13 13 13 12 11 11 10 9 8 6 5 4 4
9 10 10 11 11 12 12 12 12 13 14 14 14 13 13 12 12 11 11 10 10 9 9 9 8 8 8 9 10 11 12 11 11 11 11 11 11 10 8 7 6 5 4
10 10 11 11 11 12 12 12 13 13 13 13 13 13 12 11 10 9 9 8 8 7 7 7 7 7 7 7 8 9 10 10 9 9 10 11 11 10 9 8 6 5 4
10 10 11 11 11 12 12 12 12 12 12 12 11 11 10 9 8 7 6 6 6 6 6 6 6 6 6 6 6 7 8 8 8 8 9 10 10 10 9 8 7 6 5
11 11 11 11 11 12 12 12 11 11 11 10 9 8 7 6 6 6 6 6 6 7 7 7 6 6 6 6 6 6 6 7 7 7 7 8 9 10 9 8 7 6 5
12 12 12 11 11 11 11 11 11 10 9 8 7 7 6 6 6 6 6 6 7 8 8 8 8 8 8 7 7 6 6 6 6 6 6 7 8 9 9 9 8 6 6
13 12 12 12 11 11 11 10 10 9 8 7 6 6 6 6 6 6 7 7 8 9 9 9 9 9 9 8 8 7 6 6 6 6 5 6 6 8 8 9 8 7 6
13 13 12 12 11 11 10 9 8 7 7 6 6 6 6 6 6 7 7 8 9 9 9 9 9 9 9 9 8 8 7 6 6 6 6 6 6 6 7 8 8 7 7
13 13 12 11 11 10 9 8 7 6 6 6 6 6 6 7 7 8 9 9 9 10 9 9 9 9 8 8 8 7 6 6 6 6 6 6 6 5 6 7 7 7 7
12 12 12 11 10 8 7 7 6 6 5 6 6 7 7 8 8 9 10 10 10 10 10 9 9 9 8 8 7 6 6 5 5 6 7 7 7 6 5 5 6 6 6
12 11 11 10 9 7 7 6 6 5 6 6 7 7 8 9 10 10 11 10 10 10 10 10 9 9 8 7 7 6 6 5 5 6 7 7 7 6 5 5 5 5 5
11 11 10 9 8 7 6 6 6 6 6 7 8 8 9 10 11 11 11 11 11 11 10 9 9 8 7 7 7 6 6 5 5 5 6 7 7 6 5 5 5 5 4
11 11 9 8 7 6 6 6 6 6 7 8 8 9 10 11 11 12 11 11 11 11 10 9 9 8 7 6 6 6 6 5 5 5 6 7 7 7 6 6 5 5 4
11 10 8 7 7 6 6 6 6 7 8 8 9 9 10 11 12 12 12 11 11 11 10 10 9 8 7 7 6 6 5 5 5 5 6 7 7 8 7 7 6 5 4
10 9 8 7 7 6 6 7 7 8 8 9 9 10 11 12 12 12 12 11 11 11 11 10 9 8 8 7 6 6 5 5 5 5 6 7 8 8 8 8 7 6 5
9 9 8 7 7 6 7 7 8 8 8 9 10 11 12 12 13 12 12 12 12 11 11 11 10 9 8 7 7 6 6 6 6 6 6 7 8 8 8 8 8 7 6
9 8 7 7 6 6 7 7 8 8 8 9 10 11 12 12 13 13 12 12 12 12 12 11 10 9 8 7 7 6 6 6 6 6 7 7 8 8 8 8 8 7 6